Home   Weather   Springfield   Past weeks

Flag for USA Past Weather in Springfield, Massachusetts, USA — Yesterday and Last 2 Weeks

Now
69 °F

Scattered clouds.


Feels Like: 69 °F
Forecast: 57 / 73 °F
Wind: 3 mph from Southwest

Location: Barnes Municipal Airport

Current Time: Sep 27, 2016 at 1:24:15 PM

Latest Report: Sep 27, 2016 at 12:53 PM


Visibility: 10 mi

Pressure: 29.90 "Hg

Humidity: 61%

Dew Point: 55 °F

Location of SpringfieldLocation

Past Weather in Springfield — Graph

°F

Springfield Temperature Yesterday

Maximum temperature yesterday: 70 °F (at 3:53 PM)
Minimum temperature yesterday: 36 °F (at 4:53 AM)
Average temperature yesterday: 53 °F

High & Low Weather Summary for the Past Weeks

 TemperatureHumidityPressure
High87 °F (Sep 14, 2:53 PM)100% (Sep 13, 12:53 AM)30.36 "Hg (Sep 13, 12:53 AM)
Low36 °F (Sep 26, 4:53 AM)29% (Sep 15, 5:53 PM)29.89 "Hg (Sep 27, 5:53 AM)
Average64 °F74%30.12 "Hg
* Reported Sep 12 11:53 AM — Sep 27 11:53 AM, Springfield, Weather by CustomWeather, © 2016

Note: Actual official high and low records may vary slightly from our data, if they occured in-between our weather recording intervals... More about our weather records

Advertising

Springfield Weather History for the Previous 24 Hours

Scroll right to see more
 ConditionsComfort  
Time TempWeatherWind HumidityBarometerVisibility
11:53 AM
Tue, Sep 27
67 °FScattered clouds.No wind76%29.91 "Hg10 mi
10:53 AM64 °FFog.No wind90%29.92 "Hg5 mi
9:53 AM61 °FFog.No wind97%29.91 "Hg3 mi
8:59 AM60 °FFog.No wind100%29.91 "Hg1 mi
7:53 AM59 °FFog.No wind100%29.90 "Hg1 mi
6:53 AM58 °FMostly cloudy.3 mph100%29.90 "Hg10 mi
6:04 AM58 °FLight rain. Mostly cloudy.3 mph100%29.90 "Hg9 mi
5:53 AM58 °FLight rain. Mostly cloudy.5 mph100%29.89 "Hg10 mi
4:53 AM59 °FRain. Fog.5 mph100%29.90 "Hg5 mi
3:53 AM59 °FLight rain. Mostly cloudy.No wind93%29.91 "Hg7 mi
3:00 AM60 °FRain. Fog.No wind86%29.93 "Hg5 mi
1:53 AM61 °FMostly cloudy.5 mph75%29.94 "Hg10 mi
12:53 AM60 °FOvercast.3 mph75%29.96 "Hg10 mi
11:53 PM
Mon, Sep 26
61 °FOvercast.8 mph70%29.98 "Hg10 mi
10:53 PM61 °FOvercast.10 mph70%30.00 "Hg10 mi
9:53 PM60 °FMostly cloudy.8 mph69%30.03 "Hg10 mi
8:53 PM60 °FOvercast.7 mph67%30.04 "Hg10 mi
7:53 PM61 °FOvercast.8 mph65%30.05 "Hg10 mi
6:53 PM62 °FClear.9 mph60%30.05 "Hg10 mi
5:53 PM65 °FSunny.9 mph56%30.06 "Hg10 mi
4:53 PM67 °FSunny.14 mph47%30.06 "Hg10 mi
3:53 PM70 °FSunny.10 mph37%30.09 "Hg10 mi
2:53 PM67 °FSunny.10 mph39%30.11 "Hg10 mi
1:53 PM66 °FSunny.8 mph39%30.14 "Hg10 mi
Weather by CustomWeather, © 2016

See weather overviewHow to use our weather pages